Tracking 35280 objects as of 7-Sep-2026
HD Live streaming from Space Station
objects crossing your sky now

THOR ABLESTAR DEB


THOR ABLESTAR DEB is no longer on orbit


NORAD ID: 317
Int'l Code: 1961-015CT
Launch date: June 29, 1961
Source: United States (US)
Launch site: AIR FORCE EASTERN TEST RANGE (AFETR)
Decay date: 1981-01-11

Note: This is SATELLITE DEBRIS
Your satellite tracking list
Your tracking list is empty




NASA's NSSDC Master Catalog

Two Line Element Set (TLE):
1 00317U 61015 CT 80366.69668160  .01300371 +00000-0 +15938-1 0  9991
2 00317 066.3793 235.3116 0017066 225.0057 135.7388 15.55656729020478
Source of the keplerian elements: AFSPC